TimeCST,TemperatureF,Dew PointF,Humidity,Sea Level PressureIn,VisibilityMPH,Wind Direction,Wind SpeedMPH,Gust SpeedMPH,PrecipitationIn,Events,Conditions,WindDirDegrees,DateUTC
12:35 AM,68.0,59.0,73,29.87,10.0,SSE,9.2,16.1,N/A,,Scattered Clouds,150,2012-11-11 06:35:00
12:55 AM,68.0,59.0,73,29.87,10.0,SSE,9.2,-,N/A,,Scattered Clouds,160,2012-11-11 06:55:00
1:15 AM,68.0,60.8,78,29.86,10.0,SSE,12.7,-,N/A,,Overcast,150,2012-11-11 07:15:00
1:35 AM,68.0,60.8,78,29.85,10.0,SSE,11.5,-,N/A,,Overcast,150,2012-11-11 07:35:00
1:55 AM,68.0,60.8,78,29.84,10.0,SSE,12.7,19.6,N/A,,Overcast,160,2012-11-11 07:55:00
2:15 AM,69.8,60.8,73,29.84,10.0,South,12.7,-,N/A,,Overcast,170,2012-11-11 08:15:00
2:35 AM,71.6,60.8,69,29.83,10.0,South,17.3,23.0,N/A,,Overcast,170,2012-11-11 08:35:00
2:55 AM,71.6,60.8,69,29.83,10.0,SSE,17.3,26.5,N/A,,Overcast,160,2012-11-11 08:55:00
3:15 AM,71.6,60.8,69,29.82,10.0,SSE,17.3,-,N/A,,Overcast,160,2012-11-11 09:15:00
3:35 AM,71.6,60.8,69,29.81,10.0,SSE,13.8,25.3,N/A,,Overcast,160,2012-11-11 09:35:00
3:55 AM,69.8,60.8,73,29.81,10.0,SSE,15.0,21.9,N/A,,Mostly Cloudy,160,2012-11-11 09:55:00
4:15 AM,69.8,60.8,73,29.81,10.0,SSE,12.7,-,N/A,,Scattered Clouds,160,2012-11-11 10:15:00
4:35 AM,69.8,60.8,73,29.81,10.0,SSE,15.0,-,N/A,,Mostly Cloudy,160,2012-11-11 10:35:00
4:55 AM,69.8,62.6,78,29.81,10.0,SSE,16.1,20.7,N/A,,Overcast,160,2012-11-11 10:55:00
5:15 AM,69.8,62.6,78,29.81,10.0,SSE,13.8,19.6,N/A,,Overcast,160,2012-11-11 11:15:00
5:35 AM,69.8,62.6,78,29.82,10.0,South,15.0,23.0,N/A,,Overcast,170,2012-11-11 11:35:00
5:55 AM,69.8,62.6,78,29.83,10.0,South,15.0,20.7,N/A,,Overcast,170,2012-11-11 11:55:00
6:15 AM,69.8,62.6,78,29.84,10.0,South,15.0,23.0,N/A,,Overcast,180,2012-11-11 12:15:00
6:35 AM,69.8,62.6,78,29.84,10.0,South,15.0,19.6,N/A,,Overcast,170,2012-11-11 12:35:00
6:55 AM,71.6,62.6,73,29.85,10.0,South,13.8,23.0,N/A,,Overcast,170,2012-11-11 12:55:00
7:35 AM,71.6,62.6,73,29.87,10.0,South,15.0,19.6,N/A,,Overcast,190,2012-11-11 13:35:00
7:55 AM,71.6,62.6,73,29.89,10.0,South,12.7,-,N/A,,Overcast,190,2012-11-11 13:55:00
8:15 AM,71.6,62.6,73,29.90,10.0,South,13.8,18.4,N/A,,Overcast,190,2012-11-11 14:15:00
8:35 AM,71.6,62.6,73,29.91,10.0,SSW,9.2,-,N/A,,Overcast,200,2012-11-11 14:35:00
8:55 AM,71.6,62.6,73,29.91,10.0,SSW,11.5,-,N/A,,Overcast,200,2012-11-11 14:55:00
9:55 AM,73.4,62.6,69,29.91,10.0,SSW,17.3,25.3,N/A,,Mostly Cloudy,200,2012-11-11 15:55:00
10:15 AM,73.4,60.8,65,29.90,10.0,SSW,17.3,27.6,N/A,,Mostly Cloudy,210,2012-11-11 16:15:00
10:35 AM,75.2,60.8,61,29.89,10.0,SSW,24.2,31.1,N/A,,Scattered Clouds,210,2012-11-11 16:35:00
10:55 AM,75.2,59.0,57,29.89,10.0,SW,26.5,34.5,N/A,,Scattered Clouds,220,2012-11-11 16:55:00
11:15 AM,77.0,59.0,54,29.88,10.0,SSW,25.3,35.7,N/A,,Scattered Clouds,210,2012-11-11 17:15:00
11:35 AM,77.0,59.0,54,29.88,10.0,SSW,17.3,29.9,N/A,,Mostly Cloudy,210,2012-11-11 17:35:00
12:15 PM,77.0,59.0,54,29.88,10.0,SW,18.4,25.3,N/A,,Overcast,220,2012-11-11 18:15:00
12:35 PM,71.6,53.6,53,29.89,10.0,NW,28.8,32.2,N/A,,Overcast,310,2012-11-11 18:35:00
12:55 PM,60.8,50.0,68,29.92,10.0,NW,13.8,29.9,N/A,,Overcast,310,2012-11-11 18:55:00
1:15 PM,59.0,51.8,77,29.93,5.0,NNW,12.7,23.0,N/A,,Overcast,330,2012-11-11 19:15:00
1:35 PM,55.4,51.8,88,29.93,3.0,NNW,10.4,-,N/A,,Overcast,340,2012-11-11 19:35:00
1:55 PM,55.4,51.8,88,29.94,10.0,NNW,9.2,-,N/A,,Overcast,340,2012-11-11 19:55:00
2:15 PM,55.4,51.8,88,29.94,7.0,NNW,10.4,-,0.01,,Overcast,340,2012-11-11 20:15:00
2:35 PM,55.4,51.8,88,29.94,10.0,North,4.6,-,0.02,,Overcast,360,2012-11-11 20:35:00
2:55 PM,57.2,51.8,82,29.94,10.0,NNW,3.5,-,0.03,,Overcast,340,2012-11-11 20:55:00
3:15 PM,59.0,53.6,82,29.95,10.0,NNW,3.5,-,N/A,,Overcast,340,2012-11-11 21:15:00
3:35 PM,59.0,51.8,77,29.96,10.0,NNW,5.8,-,0.01,,Overcast,330,2012-11-11 21:35:00
3:55 PM,59.0,50.0,72,29.97,10.0,North,5.8,-,0.01,,Overcast,360,2012-11-11 21:55:00
4:15 PM,59.0,50.0,72,29.98,10.0,NNW,5.8,-,N/A,,Overcast,340,2012-11-11 22:15:00
4:35 PM,59.0,51.8,77,29.99,10.0,North,5.8,-,N/A,,Overcast,350,2012-11-11 22:35:00
4:55 PM,59.0,51.8,77,29.99,10.0,NNW,5.8,-,N/A,,Overcast,340,2012-11-11 22:55:00
5:15 PM,59.0,51.8,77,30.00,10.0,North,4.6,-,N/A,,Overcast,360,2012-11-11 23:15:00
5:35 PM,59.0,51.8,77,30.01,10.0,North,4.6,-,N/A,,Overcast,360,2012-11-11 23:35:00
5:55 PM,59.0,50.0,72,30.02,10.0,North,5.8,-,N/A,,Overcast,10,2012-11-11 23:55:00
6:15 PM,59.0,50.0,72,30.04,10.0,Calm,Calm,-,N/A,,Overcast,0,2012-11-12 00:15:00
6:35 PM,57.2,50.0,77,30.05,10.0,NNE,3.5,-,N/A,,Mostly Cloudy,30,2012-11-12 00:35:00
6:55 PM,57.2,50.0,77,30.07,10.0,NNE,4.6,-,N/A,,Mostly Cloudy,20,2012-11-12 00:55:00
7:15 PM,57.2,50.0,77,30.08,10.0,NE,3.5,-,N/A,,Overcast,40,2012-11-12 01:15:00
7:35 PM,55.4,50.0,82,30.09,10.0,NNE,3.5,-,N/A,,Mostly Cloudy,30,2012-11-12 01:35:00
7:55 PM,55.4,50.0,82,30.10,10.0,NNE,4.6,-,N/A,,Mostly Cloudy,20,2012-11-12 01:55:00
8:15 PM,55.4,50.0,82,30.14,10.0,North,20.7,26.5,0.01,,Overcast,350,2012-11-12 02:15:00
8:35 PM,53.6,46.4,77,30.17,10.0,North,15.0,-,0.01,,Overcast,350,2012-11-12 02:35:00
8:55 PM,51.8,46.4,82,30.18,10.0,North,16.1,-,0.01,,Overcast,350,2012-11-12 02:55:00
9:15 PM,51.8,44.6,76,30.19,10.0,North,12.7,18.4,N/A,,Overcast,350,2012-11-12 03:15:00
9:35 PM,51.8,42.8,71,30.21,10.0,NNW,13.8,-,N/A,,Overcast,340,2012-11-12 03:35:00
9:55 PM,50.0,42.8,76,30.22,10.0,NNW,12.7,18.4,N/A,,Overcast,330,2012-11-12 03:55:00
10:15 PM,48.2,41.0,76,30.22,10.0,NNW,12.7,-,N/A,,Scattered Clouds,330,2012-11-12 04:15:00
10:35 PM,48.2,39.2,71,30.24,10.0,NNW,12.7,-,N/A,,Scattered Clouds,340,2012-11-12 04:35:00
10:55 PM,46.4,37.4,71,30.24,10.0,NNW,16.1,-,N/A,,Mostly Cloudy,340,2012-11-12 04:55:00
11:15 PM,44.6,37.4,76,30.26,10.0,NNW,11.5,-,N/A,,Scattered Clouds,340,2012-11-12 05:15:00
11:35 PM,44.6,35.6,71,30.27,10.0,NNW,13.8,18.4,N/A,,Clear,340,2012-11-12 05:35:00
11:55 PM,42.8,35.6,76,30.28,10.0,NNW,15.0,19.6,N/A,,Clear,340,2012-11-12 05:55:00